Regional Weather Roundup
Issued by NWS Wakefield, VA

Home | Current Version | Previous Version | Text Only | Print | Product List | Glossary Off
Versions: 1 2 3 4 5 6 7 8 9 10 11 12 13 14 15 16 17 18 19 20 21 22 23 24 25 26 27 28 29 30 31 32 33 34 35 36 37 38 39 40 41 42 43 44 45 46 47 48 49

000
ASUS41 KAKQ 260110
RWRAKQ

REGIONAL WEATHER ROUNDUP
NATIONAL WEATHER SERVICE WAKEFIELD VA
800 PM EST SUN JAN 25 2015

Note: "fair" indicates few or no clouds below 12,000 feet with no
significant weather and/or obstructions to visibility. * = Denotes
station may not report precipitation (e.g., rain,snow,etc.),
thunder or fog.

VAZ042-051-052>054-056-260200-
NORTHERN VIRGINIA

CITY           SKY/WX    TMP DP  RH WIND       PRES   REMARKS
WASH NATIONAL  CLOUDY    48  31  51 CALM      29.86S
DULLES         CLOUDY    41  33  73 NE5       29.84S
FORT BELVOIR   MOCLDY    41  34  74 CALM      29.85S
QUANTICO       CLOUDY    41  35  79 CALM      29.86S
FREDERICKSBRG* CLOUDY    40  36  83 CALM      29.84S
STAFFORD*      CLOUDY    40  32  74 CALM      29.88S
WARRENTON      MOCLDY    38  37  97 CALM      29.84S
CULPEPER*      CLOUDY    37  36  93 CALM      29.85R
MANASSAS*      CLOUDY    41  36  81 CALM      29.84S
LEESBURG*      CLOUDY    43  36  75 CALM      29.85S
WINCHESTER     CLOUDY    39  32  75 CALM      29.83R
FRONT ROYAL*   CLOUDY    39  32  75 CALM      29.82R
LURAY*         CLOUDY    37  36  93 CALM      29.81S
$$

VAZ048-049-060>072-079>083-260200-
CENTRAL AND SOUTH CENTRAL VIRGINIA

CITY           SKY/WX    TMP DP  RH WIND       PRES   REMARKS
RICHMOND       CLOUDY    42  35  76 SE7       29.85R
CHESTERFIELD*  FAIR      39  27  60 CALM      29.86R
PETERSBURG*    PTCLDY    38  34  86 CALM      29.87R
HANOVER        CLOUDY    37  33  85 CALM      29.86R
TAPPAHANNOCK*  CLOUDY    41  30  63 SE3       29.87R
QUINTON*       FAIR      41  33  75 CALM      29.86R
CHARLOTTSVILLE CLOUDY    40  33  76 N3        29.82R
GORDONSVILLE*  FAIR      35  32  88 CALM      29.82S
ORANGE*        CLOUDY    36  34  93 CALM      29.85R
LOUISA*        CLOUDY    39  34  81 CALM      29.81F
BUMPASS*       MOCLDY    39  33  78 CALM      29.83S
FARMVILLE*     MOCLDY    44  34  66 S3        29.81S
CREWE*         FAIR      42  33  70 S5        29.83S
FORT PICKETT*  FAIR      44  34  70 S8        29.84R
CHASE CITY*    FAIR      43  37  78 SE5       29.82F
CLARKSVILLE*   FAIR      43  32  65 CALM      29.82F
SOUTH HILL*    CLEAR     37  33  84 S3        29.91R
LAWRENCEVILLE* FAIR      42  35  76 SE3       29.85S
EMPORIA*       CLEAR     34  32  93 CALM      29.89R
$$

VAZ088>098-260200-
SOUTHEAST VIRGINIA

CITY           SKY/WX    TMP DP  RH WIND       PRES   REMARKS
NORFOLK        CLEAR     43  31  62 S8        29.89R
VIRGINIA BEACH PTCLDY    44  33  65 S8        29.89R
NORFOLK NAVAL  PTCLDY    47  31  53 S6        29.91R
WEST POINT*    MOCLDY    41  32  71 SE5       29.89R
SALUDA*        FAIR      39  33  77 S7        29.87R
NEWPORT NEWS   PTCLDY    41  32  70 CALM      29.88R
LANGLEY AFB    PTCLDY    38  33  83 S3        29.89R
FORT EUSTIS    PTCLDY    38  35  87 SE3       29.87R
WILLIAMSBURG*    N/A     43  37  81 SE5       29.89R
HR EXEC AP*    FAIR      41  30  65 S6        29.92R
FRANKLIN*      CLEAR     36  34  92 CALM      29.89R
WAKEFIELD      PTCLDY    36  33  89 CALM      29.87R
$$

VAZ020-022-025-037-045-260200-
WEST CENTRAL AND SOUTHWEST VIRGINIA

CITY           SKY/WX    TMP DP  RH WIND       PRES   REMARKS
STAUNTON*      MOCLDY    37  32  81 CALM      29.81S
WAYNESBORO*    FAIR      38  31  74 SE3       29.79S
HOT SPRINGS VA CLOUDY    34  32  92 SE3       29.71S
LYNCHBURG      CLOUDY    42  32  67 S5        29.81R
DANVILLE       PTCLDY    48  31  51 VRB5      29.81S
SOUTH BOSTON*  FAIR      45  32  59 SE3       29.82S
MARTINSVILLE   CLOUDY    42  32  66 S3        29.81S
ROANOKE        MOCLDY    44  30  57 NE3       29.79S
BLACKSBURG     CLOUDY    41  28  60 SE5       29.78F
DUBLIN*        MOCLDY    41  32  69 CALM      29.76F
MARION*        CLOUDY    45  29  53 SE3       29.75S
HILLSVILLE*    CLOUDY    42  29  60 S7        29.75S
RICHLANDS*     CLOUDY    42  28  56 CALM      29.71F
WISE*          CLOUDY    43  28  56 S3        29.70F
ABINGDON*      CLOUDY    44  33  64 CALM      29.72F
$$

MDZ021>025-VAZ099-100-260200-
SOUTHERN MARYLAND AND THE DELMARVA PENINSULA

CITY           SKY/WX    TMP DP  RH WIND       PRES   REMARKS
PATUXENT RIVER MOCLDY    40  31  70 SE6       29.86F
BAY BRIDGE APT   N/A     43  32  65 SE5       29.88S
LEONARDTOWN    MOCLDY    41  30  65 SE7       29.88R
DOVER          CLOUDY    43  34  70 S2        29.85F
GEORGETOWN     MOCLDY    40  33  76 SE3       29.89S
EASTON         CLOUDY    45  32  61 S5        29.92R
CAMBRIDGE      MOCLDY    41  32  70 SE5       29.88S
SALISBURY      PTCLDY    36  31  82 CALM      29.89S
OCEAN CITY     PTCLDY    40  32  73 S3        29.91R
WALLOPS ISLAND PTCLDY    38  34  85 S5        29.90S
ACCOMACK*      PTCLDY    39  32  75 SE6       29.89S
$$

NCZ012>017-030>032-260200-
NORTH CENTRAL AND EASTERN NORTH CAROLINA

CITY           SKY/WX    TMP DP  RH WIND       PRES   REMARKS
ROANOKE RAPIDS FAIR      41  34  75 CALM      29.87S
RALEIGH        PTCLDY    45  32  60 S5        29.84S
ELIZABETH CITY CLEAR     41  33  73 S8        29.91R
AHOSKIE*       CLEAR     35  33  93 CALM      29.89R
EDENTON*       CLEAR     42  35  77 S7        29.91R
CURRITUCK*     CLEAR     42  32  68 S5        29.91R
KILL DEVIL HLS CLEAR     41  32  71 SE5       29.90S
MANTEO         CLEAR     43  34  70 SE5       29.91S
CAPE HATTERAS  CLEAR     50  39  66 S8        29.90F
TARBORO*       FAIR      36  35  94 CALM      29.89R
GOLDSBORO      CLEAR     45  44  93 SE5       29.86R
WASHINGTON     CLEAR     42  36  77 SE3       29.90S
GREENVILLE     CLEAR     45  36  70 S6        29.91R
NEW BERN       CLEAR     39  33  79 CALM      29.90S
WILMINGTON     CLEAR     43  36  76 CALM      29.88F
$$

VAZ048-260200-
ELSEWHERE

CITY           SKY/WX    TMP DP  RH WIND       PRES   REMARKS
HARRISBURG PA  LGT RAIN  35  32  88 E6        29.89R FOG
BALTIMORE      CLOUDY    43  32  65 E7        29.86S
ANNAPOLIS      CLOUDY    41  33  73 SE8       29.88R
ANDREWS AFB    CLOUDY    44  32  64 E6        29.85S
PHILADELPHIA   LGT RAIN  41  33  73 NE5       29.92R
HENDERSON NC   CLEAR     44  31  60 SE3       29.84S
GREENSBORO     MOCLDY    46  33  60 S10       29.79S
ROCKY MOUNT    CLEAR     39  35  86 CALM      29.87R
$$

VAZ100-260200-
MARINE

STATION/POSITION TIME  TEMP    WIND        PRES    WAVE   SWELL
                       AIR SEA DIR/SP/G            HT/PER HT/PER
                 (UTC) (F)     (DEG/KT/KT) (MB)    (FT/S) (FT/S)
BRANDYWINE LGT   0100   45 37  230/  8/  9 1012.5R
CAPE MAY NJ      0100   43 38  200/  5/  7 1012.1S
LEWES DE         0100   44 38  200/  3/  5 1012.4R
15NM E FENWICK I 0100   42 42              1012.6R   3/11
OCEAN-CITY-INLET 0100   40 40  210/  3/  4 1012.4R
WACHAPREAGUE VA  0100   40 43  170/  3/  4 1012.1S
THOMAS POINT MD  0100   43 38  150/ 11/ 11 1012.6F
GOOSES REEF MD   0100   40     VRB 10/ 12  1010.4R
COVE POINT MD    0100   39     180/  9/ 10 1011.2S
SOLOMONS ISLAND  0100      39                N/A
BISHOPS HEAD MD  0100   40 39  140/  8/  9 1011.2S
PINEY POINT MD   0100          170/  9/  9   N/A
POTOMAC MD       0100   40     160/  8/  8 1010.6R
CAMBRIDGE MD     0100   43 37  170/  7/ 10 1011.5R
LEWISETTA VA     0100   42 39  180/  7/  8 1011.1R
RAPPAHANNOCK LGT 0100          130/ 11/ 12 1012.3R
STINGRAY PT      0100   41     150/  8/ 10 1012.3R
YORK RVR RNG VA  0100   42     150/ 11/ 11 1011.1R
YORKTOWN VA      0100   42 41  170/  3/  4 1011.5R
JAMESTOWN VA     0100   43     140/  4/  6   N/A
DOMINION TERM VA 0100   45     160/  8/ 11 1011.7R
KIPTOPEKE VA     0100      46  180/ 13/ 16   N/A
CHES BAY BRIDGE  0100   43 42  150/ 11/ 13 1011.6R
CAPE HENRY VA    0100   43     160/  8/ 12 1010.8R
CHESAPEAKE LGHT  0000   45     170/ 18/ 19 1012.6R
WILLOUBY STN VA  0100   45     170/ 10/ 11 1012.3R
S CRANEY ISL VA  0100          210/  6/  8 1011.9R
CAPE HENRY BUOY  0100      45                N/A     3/11   2/11
1ST LANDING BUOY 0100   43     160/ 10/ 12 1011.5S
CAPE CHARLES BUO 0100      43                N/A     3/11   2/11
OFFSHORE WE BUOY 0100      47                N/A     3/ 9   2/ 9
64NM E OF VA BCH 0100   48 52  180/  8/ 10 1012.7F   3/10   3/10
DUCK PIER NC     0100   44 44  150/ 11/ 12 1011.7F
44100 DUCK FRF   0100      45                N/A     3/ 9   2/11
44056 DUCK FRF   0100      43                N/A     2/ 8   2/11
OREGON INLET NC  0100   42 46  130/  4/  5 1012.8S
HATTERAS NC      0100   51 53  190/  5/  9 1012.7F



USA.gov is the U.S. government's official web portal to all federal, state and local government web resources and services.